Вернуться в каталог

KOSMOS-2543 PROJECTILE

АктивенВоенныеSSO
NORAD 45915·PAYLOAD·🇷🇺 Russia
Это название спутника еще не подтверждено официальными источниками.

Запущен Nov 25, 2019 с Plesetsk Cosmodrome

Loading…

Ближайшие Пролёты (ближайшие 24 часа)

TLE

СвежийSource: Space-Track

Эпоха: Sep 14, 2026, 14:58 UTC

1 45915U 19079E   26257.62394675  .00001880  00000-0  17076-3 0  9995
2 45915  97.6687 258.9831 0169943  53.3949 308.2764 14.86050130332938

Отслеживайте KOSMOS-2543 PROJECTILE в реальном времени с AllMySat

Download on the App Store